TimeEST,TemperatureF,Dew PointF,Humidity,Sea Level PressureIn,VisibilityMPH,Wind Direction,Wind SpeedMPH,Gust SpeedMPH,PrecipitationIn,Events,Conditions,WindDirDegrees,DateUTC
12:55 AM,32.7,25.3,74,29.72,10.0,NW,4.6,-,N/A,,Overcast,320,2013-03-02 05:55:00
1:55 AM,33.6,25.2,71,29.72,10.0,NW,4.6,-,N/A,,Overcast,320,2013-03-02 06:55:00
2:46 AM,33.8,26.6,75,29.70,10.0,NW,11.5,-,N/A,,Overcast,320,2013-03-02 07:46:00
2:55 AM,34.2,26.1,72,29.70,10.0,NW,10.4,-,N/A,,Overcast,320,2013-03-02 07:55:00
3:03 AM,33.8,26.6,75,29.70,10.0,NNW,11.5,-,N/A,,Overcast,340,2013-03-02 08:03:00
3:04 AM,33.8,26.6,75,29.70,10.0,NNW,10.4,-,N/A,,Overcast,340,2013-03-02 08:04:00
3:18 AM,33.8,26.6,75,29.70,10.0,NNW,10.4,-,N/A,,Overcast,330,2013-03-02 08:18:00
3:55 AM,33.8,25.9,73,29.70,10.0,NNW,13.8,-,N/A,,Overcast,330,2013-03-02 08:55:00
4:55 AM,33.4,25.7,73,29.70,10.0,NNW,12.7,-,N/A,,Overcast,340,2013-03-02 09:55:00
5:55 AM,33.3,25.5,73,29.70,10.0,NW,8.1,-,N/A,,Overcast,320,2013-03-02 10:55:00
6:55 AM,33.3,25.0,72,29.71,10.0,WNW,9.2,-,N/A,,Overcast,300,2013-03-02 11:55:00
7:55 AM,34.2,24.8,69,29.71,10.0,WNW,8.1,-,N/A,,Overcast,300,2013-03-02 12:55:00
8:55 AM,35.2,25.0,66,29.71,10.0,NW,11.5,-,N/A,,Overcast,320,2013-03-02 13:55:00
9:55 AM,37.0,24.8,61,29.70,10.0,NNW,6.9,-,N/A,,Overcast,340,2013-03-02 14:55:00
10:55 AM,37.9,24.6,59,29.69,10.0,NW,9.2,-,N/A,,Overcast,310,2013-03-02 15:55:00
11:55 AM,39.2,25.0,57,29.68,10.0,North,10.4,-,N/A,,Overcast,10,2013-03-02 16:55:00
12:55 PM,39.2,25.0,57,29.66,10.0,NNW,10.4,-,N/A,,Overcast,330,2013-03-02 17:55:00
2:55 PM,38.8,25.5,59,29.65,10.0,WNW,9.2,-,N/A,,Overcast,300,2013-03-02 19:55:00
3:55 PM,38.1,25.5,61,29.65,10.0,NW,10.4,-,N/A,,Overcast,320,2013-03-02 20:55:00
4:55 PM,37.2,25.5,63,29.66,10.0,NNW,8.1,-,N/A,,Overcast,330,2013-03-02 21:55:00
5:55 PM,36.3,25.3,64,29.67,10.0,NNW,8.1,-,N/A,,Overcast,330,2013-03-02 22:55:00
6:55 PM,35.8,25.2,65,29.68,10.0,NNW,8.1,-,N/A,,Overcast,330,2013-03-02 23:55:00
7:55 PM,35.2,24.3,64,29.69,10.0,NNW,9.2,-,N/A,,Overcast,330,2013-03-03 00:55:00
8:55 PM,34.9,23.7,64,29.70,10.0,North,8.1,-,N/A,,Overcast,10,2013-03-03 01:55:00
9:55 PM,34.2,22.5,62,29.70,10.0,NNE,10.4,-,N/A,,Overcast,20,2013-03-03 02:55:00
10:00 PM,33.8,23.0,65,29.69,10.0,NNE,11.5,-,N/A,,Overcast,20,2013-03-03 03:00:00
10:29 PM,33.8,23.0,65,29.68,10.0,North,11.5,-,N/A,,Overcast,10,2013-03-03 03:29:00
10:36 PM,33.8,23.0,65,29.68,10.0,NNE,9.2,-,N/A,,Overcast,20,2013-03-03 03:36:00
10:45 PM,33.8,23.0,65,29.68,10.0,NNE,9.2,-,N/A,,Overcast,20,2013-03-03 03:45:00
10:55 PM,33.3,22.1,64,29.68,10.0,North,10.4,-,0.00,,Overcast,10,2013-03-03 03:55:00
11:04 PM,33.8,21.2,60,29.68,10.0,NNE,12.7,-,N/A,,Overcast,30,2013-03-03 04:04:00
11:28 PM,32.0,21.2,64,29.68,10.0,North,12.7,-,N/A,,Overcast,10,2013-03-03 04:28:00
11:29 PM,32.0,21.2,64,29.68,10.0,North,15.0,-,N/A,,Overcast,10,2013-03-03 04:29:00
11:55 PM,32.0,22.6,68,29.68,10.0,NNE,15.0,-,0.00,,Overcast,30,2013-03-03 04:55:00